| time (UTC) | temp C | wind direction | speed KPH | gust KPH | rain 1hr cm | rain 24hr cm | rain mn cm | humidity % | barometer mb |
| 20260505171501 | 18 | 360 | 0.0 | 0.0 | 0.00 | 0.00 | 0.53 | 75 | 1010.9 |
| 20260505170000 | 18 | 360 | 0.0 | 0.0 | 0.00 | 0.00 | 0.53 | 74 | 1010.8 |
| 20260505164605 | 18 | 360 | 0.0 | 0.0 | 0.00 | 0.00 | 0.53 | 73 | 1010.7 |
| 20260505163102 | 18 | 360 | 0.0 | 0.0 | 0.00 | 0.00 | 0.53 | 73 | 1010.8 |
| 20260505161559 | 19 | 360 | 0.0 | 0.0 | 0.00 | 0.00 | 0.53 | 72 | 1011.0 |
| 20260505153114 | 20 | 360 | 1.6 | 0.0 | 0.00 | 0.00 | 0.53 | 69 | 1010.9 |
| 20260505151558 | 19 | 360 | 0.0 | 0.0 | 0.00 | 0.00 | 0.53 | 72 | 1010.9 |
| 20260505124536 | 17 | 360 | 0.0 | 0.0 | 0.00 | 0.00 | 0.53 | 79 | 1012.3 |
| 20260505123032 | 17 | 360 | 0.0 | 0.0 | 0.00 | 0.00 | 0.53 | 81 | 1012.4 |
| 20260505121536 | 17 | 360 | 0.0 | 0.0 | 0.00 | 0.00 | 0.53 | 83 | 1012.5 |
| 20260505120028 | 16 | 360 | 1.6 | 0.0 | 0.00 | 0.00 | 0.53 | 82 | 1012.6 |
| 20260505114537 | 16 | 360 | 1.6 | 0.0 | 0.00 | 0.00 | 0.53 | 85 | 1012.7 |
| 20260505113028 | 16 | 360 | 1.6 | 0.0 | 0.00 | 0.00 | 0.53 | 85 | 1012.7 |
| 20260505111533 | 15 | 360 | 1.6 | 0.0 | 0.00 | 0.00 | 0.53 | 85 | 1012.8 |
| 20260505101525 | 15 | 360 | 1.6 | 0.0 | 0.00 | 0.00 | 0.53 | 88 | 1013.0 |
| 20260505100029 | 15 | 360 | 0.0 | 0.0 | 0.00 | 0.00 | 0.51 | 87 | 1012.9 |
| 20260505094523 | 15 | 360 | 0.0 | 0.0 | 0.00 | 0.00 | 0.51 | 89 | 1013.0 |
| 20260505093022 | 15 | 360 | 0.0 | 0.0 | 0.00 | 0.00 | 0.48 | 88 | 1013.3 |
| 20260505091522 | 15 | 360 | 0.0 | 0.0 | 0.00 | 0.00 | 0.43 | 87 | 1013.3 |
| 20260505090034 | 15 | 360 | 0.0 | 0.0 | 0.00 | 0.00 | 0.41 | 87 | 1013.3 |
| 20260505084529 | 15 | 360 | 0.0 | 0.0 | 0.00 | 0.00 | 0.41 | 87 | 1013.1 |
| 20260505083032 | 14 | 360 | 0.0 | 0.0 | 0.00 | 0.00 | 0.41 | 86 | 1013.0 |
| 20260505081523 | 14 | 360 | 0.0 | 0.0 | 0.00 | 0.00 | 0.41 | 88 | 1012.9 |
| 20260505080018 | 13 | 360 | 0.0 | 0.0 | 0.00 | 0.00 | 0.41 | 87 | 1012.7 |
| 20260505074515 | 13 | 360 | 0.0 | 0.0 | 0.00 | 0.00 | 0.41 | 87 | 1012.9 |
| 20260505073012 | 13 | 360 | 0.0 | 0.0 | 0.00 | 0.00 | 0.33 | 85 | 1013.1 |
| 20260505071522 | 14 | 360 | 0.0 | 0.0 | 0.00 | 0.00 | 0.20 | 83 | 1013.1 |
| 20260505070007 | 15 | 360 | 0.0 | 0.0 | 0.00 | 0.00 | 0.10 | 79 | 1013.2 |
| 20260505064504 | 15 | 360 | 0.0 | 0.0 | 0.00 | 0.00 | 0.00 | 74 | 1013.0 |
| 20260505063002 | 15 | 360 | 0.0 | 0.0 | 0.00 | 0.00 | 0.00 | 71 | 1013.0 |
| 20260505061505 | 15 | 360 | 0.0 | 0.0 | 0.00 | 0.00 | 0.00 | 71 | 1012.8 |
| 20260505060059 | 15 | 360 | 0.0 | 0.0 | 0.00 | 0.00 | 0.00 | 71 | 1012.7 |
| 20260505054614 | 15 | 360 | 1.6 | 0.0 | 0.00 | 0.00 | 0.00 | 70 | 1012.5 |
| 20260505053056 | 15 | 360 | 1.6 | 0.0 | 0.00 | 0.00 | 0.00 | 70 | 1012.4 |
| 20260505051558 | 15 | 360 | 0.0 | 0.0 | 0.00 | 0.00 | 0.00 | 70 | 1012.2 |
| 20260505041549 | 15 | 360 | 0.0 | 0.0 | 0.00 | 0.00 | 0.00 | 67 | 1012.3 |
| 20260505040048 | 15 | 360 | 0.0 | 0.0 | 0.00 | 0.00 | 0.00 | 68 | 1012.2 |
| 20260505034547 | 15 | 360 | 0.0 | 0.0 | 0.00 | 0.00 | 0.00 | 66 | 1012.3 |
| 20260505033050 | 15 | 360 | 0.0 | 0.0 | 0.00 | 0.00 | 0.00 | 67 | 1012.2 |
| 20260505031544 | 16 | 360 | 0.0 | 0.0 | 0.00 | 0.00 | 0.00 | 65 | 1012.4 |
| 20260505030046 | 16 | 360 | 0.0 | 0.0 | 0.00 | 0.00 | 0.00 | 64 | 1012.4 |
| 20260505024604 | 16 | 360 | 0.0 | 0.0 | 0.00 | 0.00 | 0.00 | 64 | 1012.3 |
| 20260505023042 | 16 | 360 | 0.0 | 0.0 | 0.00 | 0.00 | 0.00 | 64 | 1012.5 |
| 20260505021554 | 16 | 360 | 0.0 | 0.0 | 0.00 | 0.00 | 0.00 | 64 | 1012.6 |
| 20260505020045 | 16 | 360 | 0.0 | 0.0 | 0.00 | 0.00 | 0.00 | 64 | 1012.6 |
| 20260505014539 | 16 | 360 | 0.0 | 0.0 | 0.00 | 0.00 | 0.00 | 63 | 1012.6 |
| 20260505013036 | 16 | 360 | 0.0 | 0.0 | 0.00 | 0.00 | 0.00 | 62 | 1012.8 |
| 20260505011548 | 16 | 360 | 0.0 | 0.0 | 0.00 | 0.00 | 0.00 | 63 | 1013.0 |
| 20260505010037 | 16 | 360 | 0.0 | 0.0 | 0.00 | 0.00 | 0.00 | 63 | 1013.0 |
| 20260505004541 | 16 | 360 | 0.0 | 0.0 | 0.00 | 0.00 | 0.00 | 62 | 1013.2 |
| 20260505003032 | 16 | 360 | 0.0 | 0.0 | 0.00 | 0.00 | 0.00 | 63 | 1013.3 |
| 20260505001532 | 16 | 360 | 1.6 | 0.0 | 0.00 | 0.00 | 0.00 | 63 | 1013.5 |
| 20260505000029 | 16 | 360 | 0.0 | 0.0 | 0.00 | 0.00 | 0.00 | 63 | 1013.6 |
| 20260504234528 | 16 | 360 | 1.6 | 0.0 | 0.00 | 0.00 | 0.00 | 63 | 1013.8 |
| 20260504233026 | 16 | 360 | 1.6 | 0.0 | 0.00 | 0.00 | 0.00 | 61 | 1014.0 |
| 20260504231524 | 16 | 360 | 1.6 | 0.0 | 0.00 | 0.00 | 0.00 | 61 | 1014.2 |
| 20260504230026 | 16 | 360 | 1.6 | 0.0 | 0.00 | 0.00 | 0.00 | 61 | 1014.3 |
| 20260504224522 | 16 | 360 | 1.6 | 0.0 | 0.00 | 0.00 | 0.00 | 62 | 1014.4 |
| 20260504223019 | 16 | 360 | 1.6 | 0.0 | 0.00 | 0.00 | 0.00 | 62 | 1014.5 |
| 20260504221518 | 16 | 360 | 1.6 | 0.0 | 0.00 | 0.00 | 0.00 | 63 | 1014.6 |
| 20260504220021 | 16 | 360 | 0.0 | 0.0 | 0.00 | 0.00 | 0.00 | 63 | 1014.8 |
| 20260504214516 | 16 | 360 | 1.6 | 0.0 | 0.00 | 0.00 | 0.00 | 64 | 1014.7 |
| 20260504213016 | 16 | 360 | 0.0 | 0.0 | 0.00 | 0.00 | 0.00 | 65 | 1014.9 |
| 20260504211515 | 16 | 360 | 0.0 | 0.0 | 0.00 | 0.00 | 0.00 | 65 | 1015.0 |
| 20260504210015 | 17 | 360 | 0.0 | 0.0 | 0.00 | 0.00 | 0.00 | 65 | 1015.1 |
| 20260504204517 | 17 | 360 | 0.0 | 0.0 | 0.00 | 0.00 | 0.00 | 64 | 1015.1 |
| 20260504203016 | 17 | 360 | 1.6 | 0.0 | 0.00 | 0.00 | 0.00 | 63 | 1015.1 |
| 20260504201514 | 18 | 360 | 0.0 | 0.0 | 0.00 | 0.00 | 0.00 | 62 | 1014.9 |
| 20260504200017 | 18 | 360 | 0.0 | 0.0 | 0.00 | 0.00 | 0.00 | 61 | 1014.8 |
| 20260504194513 | 18 | 360 | 0.0 | 0.0 | 0.00 | 0.00 | 0.00 | 60 | 1014.7 |
| 20260504193012 | 18 | 360 | 0.0 | 0.0 | 0.00 | 0.00 | 0.00 | 58 | 1014.7 |
| 20260504191514 | 19 | 360 | 3.2 | 0.0 | 0.00 | 0.00 | 0.00 | 57 | 1014.5 |
| 20260504190013 | 19 | 360 | 1.6 | 0.0 | 0.00 | 0.00 | 0.00 | 55 | 1014.4 |
| 20260504184516 | 20 | 360 | 0.0 | 0.0 | 0.00 | 0.00 | 0.00 | 54 | 1014.3 |
| 20260504183011 | 20 | 360 | 1.6 | 0.0 | 0.00 | 0.00 | 0.00 | 52 | 1014.3 |
| 20260504181510 | 20 | 360 | 3.2 | 0.0 | 0.00 | 0.00 | 0.00 | 51 | 1014.4 |
| 20260504180010 | 21 | 360 | 3.2 | 0.0 | 0.00 | 0.00 | 0.00 | 49 | 1014.4 |
| 20260504174510 | 21 | 360 | 1.6 | 0.0 | 0.00 | 0.00 | 0.00 | 47 | 1014.3 |
| 20260504173010 | 22 | 360 | 4.8 | 0.0 | 0.00 | 0.00 | 0.00 | 46 | 1014.3 |